SENTINEL-2B (42063 NORAD) Tracking and Keplerian Element Data

This shows tracking and keplerian element data for the satellite.

Feedback or suggestion? Click here.




ElementValue
Catalog42063
NameSENTINEL-2B
Epoch Orbit10650
Epoch Day80.80191712
Epoch Year2019
RAAN156.5367
Inclination98.5706
Eccentricity0.0001364
Argument of Perigee81.9894
Mean Anonmoly278.1458
Mean Motion14.30809542
Decay Rate-3.98E-06
L11 42063U 17013A 19080.80191712 -.00000398 00000-0 -13533-3 0 9994
L22 42063 98.5706 156.5367 0001364 81.9894 278.1458 14.30809542106501

Live tracking and technical data element details for SENTINEL-2B (NORAD 42063). SENTINEL-2B can be tracked NOW for your location showing map with azimuth and elevation plus other details from your city location.

Track the satellite on the map from your city or location and see movement details for azimuth, elevation, latitude, longitude, range, height, and movement on the map or in text.







IsCatalogInMostPopularTable: catalog: 42063, numindb: 193
Update: records affected: 1



GetName: 42063 SENTINEL-2B

Hit Count: updated at: Sat, 23 Mar 2019 03:16:03 GMT